• In Germany
  • List of Countries
  • For 7 days
  • Water Temperature
  • Satellite Maps
  • Weather Map
  • Weather Widgets
  • user-avatar
    Login

    Hourly Weather Mayrhofen

    Today, 25 September, Monday

    Time Temperature Precipitation Wind Pressure Humidity
    00:00 +2°C° 0 mm 1 mps 618 mmHg 92%
    01:00 +2°C° 0 mm 1 mps 618 mmHg 91%
    02:00 +2°C° 0 mm 1 mps 618 mmHg 90%
    03:00 +2°C° 0 mm 1 mps 617 mmHg 88%
    04:00 +1°C° 0 mm 1 mps 617 mmHg 87%
    05:00 +2°C° 0 mm 1 mps 617 mmHg 85%
    06:00 +2°C° 0 mm 1 mps 617 mmHg 83%
    07:00 +4°C° 0 mm 1 mps 618 mmHg 81%
    08:00 +6°C° 0 mm 1 mps 619 mmHg 74%
    09:00 +8°C° 0 mm 1 mps 619 mmHg 67%
    10:00 +9°C° 0 mm 0 mps 620 mmHg 60%
    11:00 +9°C° 0 mm 0 mps 620 mmHg 59%
    12:00 +11°C° 0 mm 1 mps 620 mmHg 57%
    13:00 +12°C° 0 mm 1 mps 620 mmHg 55%
    14:00 +11°C° 0.1 mm 1 mps 620 mmHg 58%
    15:00 +11°C° 0.1 mm 1 mps 620 mmHg 62%
    16:00 +10°C° 0.1 mm 1 mps 620 mmHg 66%
    17:00 +8°C° 0.1 mm 1 mps 619 mmHg 73%
    18:00 +6°C° 0.1 mm 1 mps 618 mmHg 81%
    19:00 +4°C° 0.1 mm 1 mps 618 mmHg 89%
    20:00 +4°C° 0 mm 1 mps 618 mmHg 89%
    21:00 +3°C° 0 mm 1 mps 618 mmHg 89%
    22:00 +3°C° 0 mm 1 mps 618 mmHg 90%
    23:00 +3°C° 0 mm 1 mps 618 mmHg 90%

    Tomorrow, 26 September, Tuesday

    Time Temperature Precipitation Wind Pressure Humidity
    00:00 +3°C° 0 mm 1 mps 618 mmHg 91%
    01:00 +3°C° 0 mm 1 mps 618 mmHg 91%
    02:00 +3°C° 0 mm 1 mps 618 mmHg 91%
    03:00 +2°C° 0 mm 1 mps 618 mmHg 91%
    04:00 +2°C° 0 mm 1 mps 618 mmHg 92%
    05:00 +2°C° 0 mm 1 mps 618 mmHg 91%
    06:00 +3°C° 0 mm 1 mps 618 mmHg 90%
    07:00 +3°C° 0 mm 1 mps 619 mmHg 88%
    08:00 +6°C° 0 mm 1 mps 620 mmHg 80%
    09:00 +8°C° 0 mm 1 mps 621 mmHg 71%
    10:00 +11°C° 0 mm 1 mps 622 mmHg 62%
    11:00 +11°C° 0 mm 1 mps 622 mmHg 61%
    12:00 +12°C° 0 mm 1 mps 622 mmHg 59%
    13:00 +12°C° 0 mm 1 mps 622 mmHg 57%
    14:00 +12°C° 0.3 mm 1 mps 622 mmHg 61%
    15:00 +12°C° 0.3 mm 1 mps 622 mmHg 64%
    16:00 +11°C° 0.3 mm 1 mps 621 mmHg 68%
    17:00 +9°C° 0.2 mm 1 mps 621 mmHg 75%
    18:00 +7°C° 0.2 mm 1 mps 620 mmHg 82%
    19:00 +4°C° 0.2 mm 0 mps 620 mmHg 89%
    20:00 +5°C° 0 mm 1 mps 620 mmHg 89%
    21:00 +5°C° 0 mm 1 mps 620 mmHg 89%
    22:00 +4°C° 0 mm 1 mps 620 mmHg 89%
    23:00 +4°C° 0 mm 1 mps 620 mmHg 89%

    Day after tomorrow, 27 September, Wednesday

    Time Temperature Precipitation Wind Pressure Humidity
    00:00 +4°C° 0 mm 1 mps 620 mmHg 89%
    01:00 +4°C° 0 mm 1 mps 620 mmHg 89%
    02:00 +4°C° 0 mm 1 mps 620 mmHg 89%
    03:00 +3°C° 0 mm 1 mps 620 mmHg 89%
    04:00 +3°C° 0 mm 1 mps 620 mmHg 89%
    05:00 +4°C° 0 mm 1 mps 620 mmHg 88%
    06:00 +4°C° 0 mm 1 mps 621 mmHg 87%
    07:00 +4°C° 0 mm 1 mps 621 mmHg 86%
    08:00 +7°C° 0 mm 1 mps 622 mmHg 79%
    09:00 +9°C° 0 mm 1 mps 623 mmHg 71%
    10:00 +12°C° 0 mm 1 mps 624 mmHg 63%
    11:00 +12°C° 0 mm 1 mps 624 mmHg 61%
    12:00 +13°C° 0 mm 1 mps 624 mmHg 58%
    13:00 +14°C° 0 mm 1 mps 624 mmHg 56%
    14:00 +13°C° 0.1 mm 1 mps 624 mmHg 58%
    15:00 +13°C° 0.1 mm 1 mps 623 mmHg 60%
    16:00 +13°C° 0.1 mm 1 mps 623 mmHg 62%
    17:00 +10°C° 0.1 mm 1 mps 623 mmHg 71%
    18:00 +8°C° 0.1 mm 1 mps 622 mmHg 80%
    19:00 +6°C° 0.1 mm 1 mps 621 mmHg 89%
    20:00 +6°C° 0 mm 1 mps 621 mmHg 89%
    21:00 +5°C° 0 mm 1 mps 622 mmHg 89%
    22:00 +4°C° 0 mm 2 mps 622 mmHg 89%
    23:00 +4°C° 0 mm 2 mps 622 mmHg 89%

    28 September, Thursday

    Time Temperature Precipitation Wind Pressure Humidity
    00:00 +4°C° 0 mm 2 mps 622 mmHg 89%
    01:00 +3°C° 0 mm 2 mps 622 mmHg 89%
    02:00 +4°C° 0 mm 1 mps 621 mmHg 89%
    03:00 +4°C° 0 mm 1 mps 621 mmHg 89%
    04:00 +4°C° 0 mm 1 mps 621 mmHg 89%
    05:00 +4°C° 0 mm 1 mps 621 mmHg 88%
    06:00 +5°C° 0 mm 1 mps 622 mmHg 86%
    07:00 +5°C° 0 mm 1 mps 622 mmHg 85%
    08:00 +8°C° 0 mm 1 mps 623 mmHg 76%
    09:00 +10°C° 0 mm 1 mps 624 mmHg 67%
    10:00 +12°C° 0 mm 0 mps 625 mmHg 59%
    11:00 +14°C° 0 mm 1 mps 625 mmHg 57%
    12:00 +14°C° 0 mm 1 mps 625 mmHg 55%
    13:00 +15°C° 0 mm 1 mps 625 mmHg 52%
    14:00 +14°C° 0.1 mm 1 mps 625 mmHg 57%
    15:00 +14°C° 0.1 mm 1 mps 624 mmHg 61%
    16:00 +13°C° 0.1 mm 1 mps 624 mmHg 66%
    17:00 +11°C° 0.2 mm 1 mps 623 mmHg 74%
    18:00 +9°C° 0.2 mm 1 mps 623 mmHg 83%
    19:00 +6°C° 0.2 mm 0 mps 622 mmHg 91%
    20:00 +5°C° 0.1 mm 0 mps 622 mmHg 92%
    21:00 +6°C° 0.1 mm 1 mps 622 mmHg 92%
    22:00 +6°C° 0.1 mm 1 mps 622 mmHg 93%
    23:00 +6°C° 0.1 mm 1 mps 622 mmHg 93%

    29 September, Friday

    Time Temperature Precipitation Wind Pressure Humidity
    00:00 +5°C° 0.1 mm 1 mps 622 mmHg 93%
    01:00 +5°C° 0.1 mm 1 mps 622 mmHg 93%
    02:00 +5°C° 0 mm 1 mps 621 mmHg 92%
    03:00 +4°C° 0 mm 1 mps 621 mmHg 92%
    04:00 +4°C° 0 mm 1 mps 621 mmHg 92%
    05:00 +4°C° 0 mm 1 mps 621 mmHg 91%
    06:00 +5°C° 0 mm 1 mps 621 mmHg 90%
    07:00 +5°C° 0 mm 1 mps 621 mmHg 89%
    08:00 +7°C° 0 mm 1 mps 622 mmHg 80%
    09:00 +10°C° 0 mm 1 mps 623 mmHg 70%
    10:00 +12°C° 0 mm 1 mps 624 mmHg 60%
    11:00 +13°C° 0 mm 1 mps 624 mmHg 58%
    12:00 +14°C° 0 mm 1 mps 624 mmHg 55%
    13:00 +14°C° 0 mm 2 mps 624 mmHg 52%
    14:00 +14°C° 0 mm 2 mps 623 mmHg 55%
    15:00 +13°C° 0 mm 2 mps 623 mmHg 58%
    16:00 +13°C° 0 mm 2 mps 623 mmHg 60%
    17:00 +11°C° 0 mm 1 mps 622 mmHg 70%
    18:00 +8°C° 0 mm 1 mps 621 mmHg 80%
    19:00 +6°C° 0 mm 1 mps 620 mmHg 90%
    20:00 +5°C° 0 mm 1 mps 620 mmHg 91%
    21:00 +5°C° 0 mm 1 mps 620 mmHg 92%
    22:00 +5°C° 0 mm 1 mps 620 mmHg 94%
    23:00 +5°C° 0 mm 1 mps 620 mmHg 93%

    30 September, Saturday

    Time Temperature Precipitation Wind Pressure Humidity
    00:00 +4°C° 0 mm 1 mps 620 mmHg 93%
    01:00 +4°C° 0 mm 1 mps 619 mmHg 92%
    02:00 +4°C° 0 mm 1 mps 619 mmHg 91%
    03:00 +4°C° 0 mm 1 mps 619 mmHg 90%
    04:00 +4°C° 0 mm 1 mps 619 mmHg 90%
    05:00 +4°C° 0 mm 1 mps 619 mmHg 88%
    06:00 +5°C° 0 mm 1 mps 619 mmHg 87%
    07:00 +5°C° 0 mm 1 mps 619 mmHg 85%
    08:00 +7°C° 0 mm 1 mps 620 mmHg 77%
    09:00 +10°C° 0 mm 1 mps 621 mmHg 69%
    10:00 +12°C° 0 mm 1 mps 621 mmHg 60%
    11:00 +13°C° 0.1 mm 1 mps 621 mmHg 59%
    12:00 +13°C° 0.1 mm 2 mps 621 mmHg 58%
    13:00 +13°C° 0.1 mm 2 mps 621 mmHg 57%
    14:00 +13°C° 0.3 mm 2 mps 620 mmHg 63%
    15:00 +12°C° 0.3 mm 2 mps 620 mmHg 68%
    16:00 +10°C° 0.3 mm 2 mps 619 mmHg 73%
    17:00 +9°C° 0.3 mm 2 mps 619 mmHg 80%
    18:00 +8°C° 0.3 mm 1 mps 618 mmHg 87%
    19:00 +7°C° 0.3 mm 1 mps 618 mmHg 94%
    20:00 +6°C° 0.1 mm 1 mps 618 mmHg 94%
    21:00 +6°C° 0.1 mm 1 mps 617 mmHg 95%
    22:00 +5°C° 0.1 mm 1 mps 617 mmHg 96%
    23:00 +5°C° 0 mm 1 mps 617 mmHg 95%
    Show more